Location: San Gennaro Vesuviano
(40.8833°N, 14.5333°E)
Time: 22:39:32
(UTC+00:00)

Resurs 01 Rocket - Pass Details

Date: 22 April 2021
Orbit: 634 x 644 km, 97.9° (Epoch: 10 May)

Event Time Altitude Azimuth Distance (km) Brightness Sun altitude
Exits shadow 20:46:10 17° 246° (WSW) 1,645 3.8 -28.3°
Maximum altitude 20:47:26 18° 267° (W) 1,556 3.9 -28.4°
Drops below altitude 10° 20:50:33 10° 312° (NW) 2,047 5.1 -28.8°
Sets 20:53:22 0° 330° (NNW) 2,962 6.3 -29.1°
